Location: Anjeux
(47.8815°N, 6.2076°E)
Time: 17:24:59
(UTC+00:00)

ISS - Pass Details

Date: 29 September 2021
Orbit: 417 x 423 km, 51.6° (Epoch: 20 October)

Event Time Altitude Azimuth Distance (km) Brightness Sun altitude
Rises 19:51:06 0° 292° (WNW) 2,367 1.4 -25.7°
Reaches altitude 10° 19:53:13 10° 288° (WNW) 1,501 0.0 -26.0°
Enters shadow 19:54:52 26° 276° (W) 878 -1.6 -26.2°
